Terminal Aerodrome Forecast
Issued by NWS

Current Version | Previous Version | Text Only | Print | Product List | Glossary Off
Versions: 1 2 3 4 5 6 7 8 9 10 11 12 13 14 15 16 17 18 19 20 21 22 23 24 25 26 27 28 29 30 31 32 33 34 35 36 37 38 39 40 41 42 43 44 45 46 47 48 49 50

677
FTUS41 KRNK 030236 AAB
TAFLWB
TAF AMD
KLWB 030236Z 0303/0324 00000KT 4SM BR SCT007 BKN100
      TEMPO 0303/0307 1SM BR OVC007
     FM030800 00000KT 1/2SM FG OVC003
     FM031500 27008KT P6SM OVC025
     FM032100 27006KT P6SM BKN035=

USA.gov is the U.S. government's official web portal to all federal, state and local government web resources and services.